• In Netherlands
  • List of Countries
  • For 7 days
  • Water Temperature
  • Satellite Maps
  • Weather Map
  • Weather Widgets
  • user-avatar
    Login

    Hourly Weather Igls

    Today, 20 August, Sunday

    Time Temperature Precipitation Wind Pressure Humidity
    00:00 +12°C° 0.2 mm 2 mps 687 mmHg 96%
    01:00 +12°C° 0 mm 2 mps 687 mmHg 95%
    02:00 +10°C° 0 mm 2 mps 687 mmHg 96%
    03:00 +10°C° 0 mm 2 mps 687 mmHg 96%
    04:00 +9°C° 0 mm 2 mps 687 mmHg 96%
    05:00 +10°C° 0.1 mm 2 mps 687 mmHg 95%
    06:00 +10°C° 0.1 mm 2 mps 688 mmHg 94%
    07:00 +12°C° 0.1 mm 2 mps 688 mmHg 92%
    08:00 +13°C° 0.1 mm 2 mps 688 mmHg 87%
    09:00 +14°C° 0.1 mm 2 mps 688 mmHg 82%
    10:00 +16°C° 0.1 mm 2 mps 689 mmHg 76%
    11:00 +16°C° 0.2 mm 2 mps 689 mmHg 71%
    12:00 +17°C° 0.2 mm 2 mps 689 mmHg 66%
    13:00 +18°C° 0.2 mm 2 mps 689 mmHg 60%
    14:00 +18°C° 0.1 mm 2 mps 689 mmHg 60%
    15:00 +18°C° 0.1 mm 2 mps 689 mmHg 60%
    16:00 +19°C° 0.1 mm 2 mps 689 mmHg 60%
    17:00 +17°C° 0.1 mm 2 mps 689 mmHg 69%
    18:00 +15°C° 0.1 mm 2 mps 689 mmHg 78%
    19:00 +14°C° 0.1 mm 1 mps 689 mmHg 87%
    20:00 +13°C° 0 mm 1 mps 689 mmHg 89%
    21:00 +12°C° 0 mm 1 mps 689 mmHg 92%
    22:00 +12°C° 0 mm 1 mps 689 mmHg 94%
    23:00 +11°C° 0 mm 1 mps 689 mmHg 94%

    Tomorrow, 21 August, Monday

    Time Temperature Precipitation Wind Pressure Humidity
    00:00 +11°C° 0 mm 1 mps 689 mmHg 94%
    01:00 +10°C° 0 mm 1 mps 689 mmHg 94%
    02:00 +10°C° 0 mm 1 mps 689 mmHg 94%
    03:00 +9°C° 0 mm 1 mps 689 mmHg 93%
    04:00 +9°C° 0 mm 1 mps 689 mmHg 92%
    05:00 +10°C° 0 mm 1 mps 689 mmHg 88%
    06:00 +11°C° 0 mm 1 mps 689 mmHg 83%
    07:00 +12°C° 0 mm 1 mps 689 mmHg 78%
    08:00 +15°C° 0 mm 1 mps 690 mmHg 67%
    09:00 +17°C° 0 mm 2 mps 690 mmHg 56%
    10:00 +19°C° 0 mm 2 mps 690 mmHg 45%
    11:00 +20°C° 0 mm 2 mps 690 mmHg 43%
    12:00 +21°C° 0 mm 2 mps 690 mmHg 41%
    13:00 +21°C° 0 mm 2 mps 690 mmHg 39%
    14:00 +21°C° 0 mm 2 mps 689 mmHg 42%
    15:00 +21°C° 0 mm 2 mps 689 mmHg 46%
    16:00 +20°C° 0 mm 2 mps 689 mmHg 49%
    17:00 +19°C° 0 mm 2 mps 689 mmHg 58%
    18:00 +17°C° 0 mm 2 mps 688 mmHg 68%
    19:00 +15°C° 0 mm 1 mps 688 mmHg 78%
    20:00 +15°C° 0.1 mm 1 mps 689 mmHg 81%
    21:00 +14°C° 0.1 mm 1 mps 689 mmHg 85%
    22:00 +13°C° 0.1 mm 1 mps 689 mmHg 88%
    23:00 +13°C° 0 mm 1 mps 689 mmHg 89%

    Day after tomorrow, 22 August, Tuesday

    Time Temperature Precipitation Wind Pressure Humidity
    00:00 +12°C° 0 mm 1 mps 689 mmHg 90%
    01:00 +11°C° 0 mm 1 mps 688 mmHg 91%
    02:00 +11°C° 0 mm 1 mps 688 mmHg 90%
    03:00 +11°C° 0 mm 1 mps 688 mmHg 90%
    04:00 +11°C° 0 mm 1 mps 688 mmHg 89%
    05:00 +12°C° 0 mm 1 mps 688 mmHg 85%
    06:00 +14°C° 0 mm 1 mps 688 mmHg 80%
    07:00 +15°C° 0 mm 1 mps 689 mmHg 76%
    08:00 +18°C° 0 mm 1 mps 689 mmHg 69%
    09:00 +21°C° 0 mm 1 mps 689 mmHg 62%
    10:00 +23°C° 0 mm 1 mps 689 mmHg 55%
    11:00 +24°C° 0 mm 1 mps 689 mmHg 53%
    12:00 +24°C° 0 mm 1 mps 689 mmHg 51%
    13:00 +25°C° 0 mm 2 mps 689 mmHg 49%
    14:00 +25°C° 0 mm 2 mps 688 mmHg 51%
    15:00 +25°C° 0 mm 2 mps 688 mmHg 54%
    16:00 +24°C° 0 mm 2 mps 688 mmHg 56%
    17:00 +21°C° 0.1 mm 2 mps 687 mmHg 67%
    18:00 +20°C° 0.1 mm 1 mps 687 mmHg 78%
    19:00 +18°C° 0.1 mm 1 mps 687 mmHg 88%
    20:00 +16°C° 0 mm 1 mps 687 mmHg 91%
    21:00 +15°C° 0 mm 1 mps 687 mmHg 93%
    22:00 +14°C° 0 mm 1 mps 687 mmHg 96%
    23:00 +14°C° 0 mm 1 mps 687 mmHg 96%

    23 August, Wednesday

    Time Temperature Precipitation Wind Pressure Humidity
    00:00 +13°C° 0 mm 1 mps 686 mmHg 95%
    01:00 +13°C° 0 mm 1 mps 686 mmHg 95%
    02:00 +13°C° 0 mm 1 mps 686 mmHg 94%
    03:00 +13°C° 0 mm 1 mps 686 mmHg 93%
    04:00 +13°C° 0 mm 1 mps 686 mmHg 92%
    05:00 +14°C° 0 mm 1 mps 686 mmHg 87%
    06:00 +16°C° 0 mm 1 mps 687 mmHg 81%
    07:00 +18°C° 0 mm 1 mps 687 mmHg 76%
    08:00 +21°C° 0 mm 1 mps 687 mmHg 65%
    09:00 +23°C° 0 mm 1 mps 688 mmHg 54%
    10:00 +26°C° 0 mm 1 mps 688 mmHg 43%
    11:00 +27°C° 0 mm 1 mps 688 mmHg 40%
    12:00 +28°C° 0 mm 1 mps 688 mmHg 38%
    13:00 +28°C° 0 mm 1 mps 688 mmHg 35%
    14:00 +28°C° 0 mm 2 mps 688 mmHg 37%
    15:00 +28°C° 0 mm 2 mps 688 mmHg 39%
    16:00 +27°C° 0 mm 2 mps 688 mmHg 41%
    17:00 +25°C° 0 mm 2 mps 687 mmHg 53%
    18:00 +22°C° 0 mm 1 mps 687 mmHg 66%
    19:00 +20°C° 0 mm 1 mps 687 mmHg 79%
    20:00 +19°C° 0 mm 1 mps 687 mmHg 80%
    21:00 +18°C° 0 mm 1 mps 687 mmHg 81%
    22:00 +16°C° 0 mm 1 mps 687 mmHg 82%
    23:00 +16°C° 0 mm 1 mps 687 mmHg 81%

    24 August, Thursday

    Time Temperature Precipitation Wind Pressure Humidity
    00:00 +16°C° 0 mm 1 mps 687 mmHg 80%
    01:00 +16°C° 0 mm 1 mps 687 mmHg 79%
    02:00 +16°C° 0 mm 1 mps 687 mmHg 78%
    03:00 +16°C° 0 mm 1 mps 687 mmHg 78%
    04:00 +16°C° 0 mm 1 mps 687 mmHg 77%
    05:00 +18°C° 0 mm 1 mps 687 mmHg 75%
    06:00 +19°C° 0 mm 1 mps 688 mmHg 73%
    07:00 +20°C° 0 mm 1 mps 688 mmHg 71%
    08:00 +22°C° 0 mm 1 mps 688 mmHg 64%
    09:00 +24°C° 0 mm 1 mps 689 mmHg 56%
    10:00 +26°C° 0 mm 1 mps 689 mmHg 49%
    11:00 +27°C° 0.1 mm 1 mps 689 mmHg 48%
    12:00 +27°C° 0.1 mm 1 mps 689 mmHg 48%
    13:00 +28°C° 0.1 mm 1 mps 689 mmHg 47%
    14:00 +27°C° 0.8 mm 1 mps 689 mmHg 53%
    15:00 +26°C° 0.8 mm 1 mps 688 mmHg 59%
    16:00 +25°C° 0.8 mm 1 mps 688 mmHg 65%
    17:00 +24°C° 0.5 mm 1 mps 688 mmHg 71%
    18:00 +22°C° 0.5 mm 1 mps 688 mmHg 77%
    19:00 +21°C° 0.5 mm 1 mps 688 mmHg 83%
    20:00 +20°C° 0.1 mm 1 mps 688 mmHg 85%
    21:00 +19°C° 0.1 mm 1 mps 688 mmHg 86%
    22:00 +17°C° 0.1 mm 2 mps 688 mmHg 87%
    23:00 +17°C° 0.1 mm 2 mps 688 mmHg 86%

    25 August, Friday

    Time Temperature Precipitation Wind Pressure Humidity
    00:00 +17°C° 0.1 mm 2 mps 688 mmHg 86%
    01:00 +16°C° 0.1 mm 2 mps 688 mmHg 86%
    02:00 +16°C° 0 mm 2 mps 688 mmHg 86%
    03:00 +16°C° 0 mm 2 mps 688 mmHg 85%
    04:00 +16°C° 0 mm 2 mps 688 mmHg 84%
    05:00 +17°C° 0 mm 2 mps 688 mmHg 82%
    06:00 +19°C° 0 mm 1 mps 688 mmHg 79%
    07:00 +20°C° 0 mm 1 mps 688 mmHg 77%
    08:00 +23°C° 0 mm 1 mps 689 mmHg 67%
    09:00 +25°C° 0 mm 1 mps 689 mmHg 57%
    10:00 +28°C° 0 mm 1 mps 689 mmHg 46%
    11:00 +29°C° 0.1 mm 1 mps 689 mmHg 44%
    12:00 +29°C° 0.1 mm 2 mps 689 mmHg 42%
    13:00 +30°C° 0.1 mm 2 mps 689 mmHg 39%
    14:00 +30°C° 0.2 mm 2 mps 688 mmHg 42%
    15:00 +29°C° 0.2 mm 2 mps 688 mmHg 44%
    16:00 +29°C° 0.2 mm 2 mps 688 mmHg 46%
    17:00 +27°C° 0.3 mm 2 mps 688 mmHg 57%
    18:00 +24°C° 0.3 mm 2 mps 687 mmHg 68%
    19:00 +22°C° 0.3 mm 1 mps 687 mmHg 79%
    20:00 +20°C° 0.2 mm 2 mps 687 mmHg 81%
    21:00 +19°C° 0.2 mm 2 mps 687 mmHg 83%
    22:00 +18°C° 0.2 mm 2 mps 687 mmHg 84%
    23:00 +18°C° 0.4 mm 2 mps 687 mmHg 85%
    Show more